Location: ???????
(55.5931°N, 39.3286°E)
Time: 02:19:08
(UTC+00:00)

USA 229 - Pass Details

Date: 14 April 2024
Orbit: 890 x 1322 km, 63.4° (Epoch: 18 May)

Event Time Altitude Azimuth Distance (km) Brightness Sun altitude
Rises 01:34:46 0° 302° (WNW) 3,838 6.3 -6.7°
Reaches altitude 10° 01:37:20 10° 306° (NW) 2,942 5.8 -6.4°
Maximum altitude 01:44:22 66° 28° (NNE) 1,278 4.4 -5.5°
Drops below altitude 10° 01:52:09 10° 111° (ESE) 3,237 7.0 -4.5°
Sets 01:55:06 0° 114° (ESE) 4,246 7.5 -4.1°
